[[{"header":{"parameterUnit":"m.s-1","parameterCategory":1,"la1":30.2991,"la2":30.254,"lo1":-89.0895,"lo2":-89.0444,"dy":0.0017,"dx":0.0017,"nx":28,"ny":28,"refTime":"2024-08-09T15:00:00:Z","depth":0,"parameterNumber":2,"parameterNumberName":"U-component_of_WINDS"},"data":[0,0,0,0,0,0,0,0,0,0,0,0,0,0,0,0,0,0,0,0,0,0,0,0,0,0,0,0,0,0,0,0,0,0,0,0,0,0,0,0,0,0,0,0,0,0,0,0,0,0,0,0,0,0,0,0,0,0,-0.9933,-0.9933,0,-0.9973,-0.9974,-0.9974,-0.9992,-0.9992,-0.9992,-0.9991,-1.003,-1.0031,-1.0033,0,0,0,0,0,0,0,0,0,0,0,0,0,-0.9867,-0.9868,-0.9933,-0.9933,-0.9934,-0.9973,-0.9974,-0.9974,-0.9992,-0.9992,-0.9992,-0.9991,-1.003,-1.0031,-1.0033,0,0,0,0,0,0,0,0,0,0,0,0,0,-0.99,-0.9868,-0.9933,-0.9947,-0.9949,-0.9973,-0.9974,-0.9975,-0.9992,-0.9992,-0.9991,-0.9991,-1.003,-1.0031,-1.0033,-1.0045,0,0,-1.0038,-1.0039,0,0,0,0,0,0,0,0,-0.9898,-0.9903,-0.9945,-0.9946,-0.9948,-0.9977,-0.9965,-0.9998,-0.9992,-0.9975,-0.9991,-0.9991,-1.0013,-1.0016,-1.0023,-1.0047,-1.0048,-1.0038,-1.0039,-1.004,-1.004,0,0,0,0,0,0,0,-0.9896,-0.9901,-0.9949,-0.9945,-0.9947,-0.9951,-0.9955,-0.9971,-0.9994,-0.9977,-0.9978,-0.9983,-1.0014,-1.0022,-1.0024,-1.0049,-1.0038,-1.0039,-1.004,-1.0041,-1.0082,-1.0082,0,0,0,0,0,0,-0.9892,-0.9899,-0.9948,-0.995,-0.9923,-0.9952,-0.9957,-0.9968,-0.9994,-0.9998,-0.9983,-0.9984,-1.0019,-1.0023,-1.0026,-1.0041,-1.004,-1.0041,-1.0042,-1.0082,-1.0082,-1.0082,0,0,0,0,0,0,-0.989,-0.9896,-0.9946,-0.9925,-0.9932,-0.9953,-0.9965,-0.9969,-0.9977,-0.9999,-1.0002,-0.9987,-1.0019,-1.0024,-1.004,-1.0043,-1.0042,-1.0043,-1.0082,-1.0082,-1.0082,-1.0071,0,0,0,0,0,0,-0.9888,-0.9895,-0.9901,-0.9925,-0.9933,-0.996,-0.9966,-0.997,-0.998,-0.9982,-1.0004,-1.0007,-1.0019,-1.0037,-1.0041,-1.0045,-1.0045,-1.0082,-1.0082,-1.0082,-1.0072,-1.0071,-1.0071,0,0,0,0,0,-0.9886,-0.9896,-0.9901,-0.9907,-0.994,-0.996,-0.9965,-0.9979,-0.9981,-0.9986,-0.9999,-1.0007,-1.0041,-1.0039,-1.0044,-1.0047,-1.0082,-1.0082,-1.0082,-1.0072,-1.0071,-1.0071,0,0,0,0,0,0,-0.9872,-0.99,-0.9906,-0.9924,-0.994,-0.9963,-0.9971,-0.9978,-0.9993,-0.9994,-1.001,-1.0015,-1.003,-1.004,-1.0037,-1.006,-1.0062,-1.0063,-1.0052,-1.0052,-1.0052,-1.0049,-1.0046,0,0,0,0,0,-0.9871,-0.9886,-0.9909,-0.9923,-0.993,-0.9949,-0.9958,-0.9968,-0.9985,-0.9991,-1.0006,-1.0021,-1.0035,-1.0044,-1.0058,-1.0073,-1.0077,-1.0078,-1.0077,-1.0077,-1.0078,-1.0085,-1.0085,-1.0083,-1.0083,-1.0083,0,0,-0.9869,-0.9886,-0.9894,-0.992,-0.9934,-0.9948,-0.9955,-0.9969,-0.9979,-0.9993,-1.001,-1.002,-1.0038,-1.0053,-1.0061,-1.0062,-1.0079,-1.0077,-1.0077,-1.0078,-1.0085,-1.0085,-1.0085,-1.0083,-1.0083,-1.0083,0,0,-0.9873,-0.9887,-0.99,-0.9913,-0.9933,-0.9945,-0.9948,-0.9971,-0.9979,-0.9995,-1.0005,-1.0017,-1.0041,-1.0053,-1.0062,-1.0069,-1.0076,-1.0073,-1.0071,-1.0077,-1.0077,-1.0078,-1.0079,-1.008,-1.0074,-1.0073,-1.0073,0,-0.9868,-0.989,-0.9906,-0.992,-0.993,-0.9943,-0.9956,-0.9967,-0.9991,-0.9997,-0.9999,-1.0029,-1.0042,-1.0059,-1.0061,-1.0068,-1.0071,-1.0071,-1.0076,-1.0077,-1.0077,-1.0079,-1.0079,-1.0073,-1.0073,-1.0073,-1.0073,0,-0.9882,-0.9897,-0.9905,-0.9928,-0.9939,-0.9952,-0.9968,-0.9978,-0.9986,-0.9997,-1.0013,-1.0029,-1.0046,-1.0051,-1.0059,-1.0069,-1.0069,-1.0073,-1.0076,-1.0077,-1.0078,-1.0079,-1.0072,-1.0072,-1.0073,-1.0073,0,0,-0.9879,-0.9909,-0.9912,-0.9922,-0.9944,-0.9956,-0.9968,-0.9986,-0.9993,-1.0008,-1.0018,-1.0038,-1.0042,-1.0052,-1.0061,-1.0067,-1.007,-1.0071,-1.0071,-1.0069,-1.0081,-1.0077,-1.0078,-1.0074,-1.0075,-1.0075,-1.0079,0,-0.9885,-0.991,-0.9924,-0.9942,-0.9955,-0.9967,-0.9978,-0.9992,-1.0003,-1.0015,-1.0026,-1.0039,-1.0044,-1.005,-1.0056,-1.0068,-1.0072,-1.0068,-1.0083,-1.0084,-1.0079,-1.0079,-1.0076,-1.0079,-1.008,-1.008,-1.008,0,-0.9897,-0.9912,-0.9932,-0.9951,-0.9957,-0.9967,-0.9983,-0.9995,-1.001,-1.0018,-1.0028,-1.0037,-1.005,-1.0051,-1.0068,-1.0065,-1.0071,-1.0078,-1.0078,-1.008,-1.0082,-1.008,-1.0081,-1.0081,-1.0081,-1.0081,-1.0081,0,-0.9892,-0.9917,-0.9932,-0.994,-0.9963,-0.997,-0.998,-0.9995,-1.0004,-1.0018,-1.0024,-1.0038,-1.0046,-1.0057,-1.0069,-1.0069,-1.0084,-1.0087,-1.0089,-1.0089,-1.0092,-1.0092,-1.0093,-1.0096,-1.0096,-1.0096,-1.0096,0,-0.9897,-0.9909,-0.993,-0.9939,-0.9951,-0.9966,-0.9978,-0.9988,-1.0002,-1.0012,-1.0023,-1.0032,-1.0048,-1.0059,-1.0068,-1.008,-1.0083,-1.0088,-1.0091,-1.0088,-1.0087,-1.0092,-1.0092,-1.0097,-1.0096,-1.0096,-1.0096,0,-0.9894,-0.9909,-0.9925,-0.9946,-0.9951,-0.996,-0.9977,-0.9985,-0.9996,-1.0009,-1.0012,-1.0029,-1.0042,-1.0055,-1.0073,-1.0079,-1.009,-1.0093,-1.0085,-1.0086,-1.0088,-1.0087,-1.0093,-1.0094,-1.0097,-1.0097,-1.0097,0,-0.9897,-0.9906,-0.9927,-0.9935,-0.9945,-0.9958,-0.9967,-0.9981,-0.999,-1.0008,-1.0014,-1.0028,-1.004,-1.006,-1.0072,-1.0085,-1.0089,-1.009,-1.0091,-1.0087,-1.0088,-1.0088,-1.0088,-1.0089,-1.0089,-1.0089,-1.0089,0,-0.9899,-0.9906,-0.9919,-0.9935,-0.9946,-0.9958,-0.9971,-0.9977,-0.9993,-1.0003,-1.0016,-1.0026,-1.0043,-1.0057,-1.0071,-1.008,-1.0087,-1.0088,-1.009,-1.0086,-1.0081,-1.0083,-1.0083,-1.0088,-1.0088,-1.0089,-1.0089,-1.0089,-0.9899,-0.9907,-0.9923,-0.9937,-0.9949,-0.996,-0.9969,-0.998,-0.9993,-1.0009,-1.0016,-1.0029,-1.0043,-1.0063,-1.0071,-1.0081,-1.0083,-1.0085,-1.0086,-1.0086,-1.0085,-1.0079,-1.0084,-1.0084,-1.0084,-1.0084,-1.0084,0,-0.9902,-0.9913,-0.9925,-0.9943,-0.9954,-0.996,-0.9974,-0.9982,-0.9995,-1.0007,-1.0019,-1.0034,-1.0046,-1.0059,-1.0073,-1.0078,-1.0081,-1.0081,-1.008,-1.0082,-1.0083,-1.008,-1.0078,-1.0078,-1.0078,-1.0078,-1.0078,-1.0078,-0.9905,-0.9919,-0.9927,-0.9946,-0.9956,-0.997,-0.9977,-0.9988,-0.9998,-1.0014,-1.0025,-1.0034,-1.0046,-1.006,-1.0071,-1.0075,-1.0079,-1.0077,-1.0081,-1.0082,-1.0082,-1.0083,-1.008,-1.0078,-1.0078,-1.008,-1.008,-1.008]},{"header":{"parameterUnit":"m.s-1","parameterCategory":1,"la1":30.2991,"la2":30.254,"lo1":-89.0895,"lo2":-89.0444,"dy":0.0017,"dx":0.0017,"nx":28,"ny":28,"refTime":"2024-08-09T15:00:00:Z","depth":0,"parameterNumber":3,"parameterNumberName":"V-component_of_WINDS"},"data":[0,0,0,0,0,0,0,0,0,0,0,0,0,0,0,0,0,0,0,0,0,0,0,0,0,0,0,0,0,0,0,0,0,0,0,0,0,0,0,0,0,0,0,0,0,0,0,0,0,0,0,0,0,0,0,0,0,0,-2.7903,-2.7903,0,-2.7969,-2.7969,-2.797,-2.7965,-2.7964,-2.7963,-2.7962,-2.8026,-2.8028,-2.8031,0,0,0,0,0,0,0,0,0,0,0,0,0,-2.7769,-2.7771,-2.7903,-2.7903,-2.7904,-2.7968,-2.7969,-2.797,-2.7965,-2.7964,-2.7963,-2.7962,-2.8025,-2.8028,-2.8031,0,0,0,0,0,0,0,0,0,0,0,0,0,-2.783,-2.7772,-2.7902,-2.791,-2.7911,-2.7968,-2.7969,-2.797,-2.7966,-2.7964,-2.7963,-2.7961,-2.8024,-2.8028,-2.8032,-2.8085,0,0,-2.8043,-2.8045,0,0,0,0,0,0,0,0,-2.7827,-2.7835,-2.7908,-2.7909,-2.7911,-2.7957,-2.7946,-2.8009,-2.7966,-2.7945,-2.7962,-2.7961,-2.8004,-2.8009,-2.8025,-2.8088,-2.8091,-2.8044,-2.8046,-2.8048,-2.8049,0,0,0,0,0,0,0,-2.7822,-2.7832,-2.7929,-2.7909,-2.7911,-2.7908,-2.7915,-2.7957,-2.7981,-2.7946,-2.7946,-2.7954,-2.8004,-2.8021,-2.8026,-2.8091,-2.8044,-2.8047,-2.805,-2.8051,-2.8201,-2.8202,0,0,0,0,0,0,-2.7817,-2.7829,-2.7926,-2.7931,-2.7864,-2.7912,-2.792,-2.7944,-2.7981,-2.7985,-2.7955,-2.7954,-2.8015,-2.8022,-2.8028,-2.8093,-2.8048,-2.8051,-2.8054,-2.8199,-2.8201,-2.8203,0,0,0,0,0,0,-2.7814,-2.7826,-2.7924,-2.788,-2.7892,-2.7916,-2.7943,-2.7946,-2.7962,-2.7988,-2.7992,-2.7968,-2.8014,-2.8023,-2.8071,-2.8095,-2.8053,-2.8057,-2.8197,-2.82,-2.8202,-2.8222,0,0,0,0,0,0,-2.781,-2.7825,-2.7846,-2.788,-2.7894,-2.7966,-2.7944,-2.7948,-2.797,-2.7968,-2.8001,-2.8005,-2.8014,-2.8065,-2.8075,-2.8099,-2.806,-2.8195,-2.8198,-2.8201,-2.8219,-2.8224,-2.8229,0,0,0,0,0,-2.7806,-2.7848,-2.7847,-2.7859,-2.7922,-2.7968,-2.7976,-2.7986,-2.7972,-2.7992,-2.8009,-2.8004,-2.8091,-2.807,-2.8081,-2.8107,-2.8194,-2.8197,-2.8201,-2.8217,-2.8223,-2.8229,0,0,0,0,0,0,-2.7815,-2.7853,-2.7852,-2.7907,-2.7935,-2.7967,-2.7993,-2.7993,-2.8024,-2.8021,-2.8031,-2.8039,-2.8087,-2.8102,-2.8078,-2.816,-2.814,-2.8146,-2.8148,-2.8155,-2.816,-2.8155,-2.8063,0,0,0,0,0,-2.7824,-2.7859,-2.789,-2.7936,-2.7949,-2.7969,-2.799,-2.7996,-2.8023,-2.8035,-2.8054,-2.8081,-2.8114,-2.8136,-2.8168,-2.8222,-2.8228,-2.8245,-2.825,-2.8254,-2.8258,-2.8287,-2.8295,-2.8215,-2.8215,-2.8215,0,0,-2.7841,-2.7867,-2.7888,-2.7938,-2.796,-2.7995,-2.7979,-2.8017,-2.8043,-2.804,-2.8086,-2.8102,-2.8132,-2.8183,-2.8207,-2.8197,-2.8282,-2.8259,-2.8262,-2.8264,-2.8292,-2.8299,-2.8306,-2.8217,-2.8217,-2.8217,0,0,-2.7891,-2.7915,-2.7955,-2.7978,-2.8011,-2.8024,-2.8034,-2.8067,-2.8078,-2.8125,-2.8123,-2.8154,-2.8211,-2.8233,-2.8251,-2.831,-2.8306,-2.832,-2.8346,-2.8374,-2.838,-2.8386,-2.8406,-2.8413,-2.8325,-2.8325,-2.8325,0,-2.7909,-2.7963,-2.7975,-2.8014,-2.8036,-2.8037,-2.8077,-2.8097,-2.8139,-2.8154,-2.8143,-2.8215,-2.8235,-2.8291,-2.8306,-2.8321,-2.8331,-2.8316,-2.8379,-2.8385,-2.839,-2.8409,-2.8417,-2.8326,-2.8326,-2.8326,-2.8326,0,-2.7982,-2.802,-2.8048,-2.809,-2.8115,-2.8154,-2.8171,-2.8195,-2.8199,-2.8213,-2.826,-2.8285,-2.8322,-2.8336,-2.8339,-2.8392,-2.8385,-2.8377,-2.8356,-2.8399,-2.8417,-2.8424,-2.8328,-2.8328,-2.8327,-2.8327,0,0,-2.8038,-2.8088,-2.8098,-2.8117,-2.8154,-2.8183,-2.8222,-2.8259,-2.8279,-2.8308,-2.834,-2.8389,-2.8381,-2.8402,-2.8408,-2.8433,-2.8477,-2.8422,-2.8422,-2.843,-2.8535,-2.854,-2.8549,-2.8476,-2.8477,-2.8478,-2.8532,0,-2.8091,-2.8162,-2.8174,-2.8235,-2.8269,-2.8271,-2.8305,-2.8331,-2.8345,-2.8375,-2.8391,-2.8425,-2.8413,-2.8425,-2.845,-2.8467,-2.8498,-2.8463,-2.8504,-2.8505,-2.8495,-2.8558,-2.8564,-2.8613,-2.854,-2.8541,-2.8542,0,-2.8162,-2.8194,-2.8259,-2.8292,-2.8307,-2.8337,-2.8372,-2.8402,-2.8431,-2.844,-2.8464,-2.8467,-2.8506,-2.8486,-2.8539,-2.8515,-2.8533,-2.8544,-2.8546,-2.8548,-2.8525,-2.8561,-2.863,-2.8637,-2.8553,-2.8552,-2.8551,0,-2.8195,-2.8255,-2.8301,-2.8317,-2.8357,-2.8378,-2.8396,-2.8424,-2.8446,-2.8476,-2.849,-2.8525,-2.8543,-2.8569,-2.8581,-2.8565,-2.8633,-2.8614,-2.864,-2.864,-2.8653,-2.8652,-2.8724,-2.8667,-2.8667,-2.8667,-2.8667,0,-2.8252,-2.8291,-2.8316,-2.8344,-2.8388,-2.8402,-2.8444,-2.8461,-2.8486,-2.8517,-2.8521,-2.8549,-2.8564,-2.8595,-2.8605,-2.8647,-2.8655,-2.8662,-2.8664,-2.8661,-2.866,-2.8671,-2.8668,-2.8669,-2.8668,-2.8668,-2.8668,0,-2.8295,-2.8314,-2.8364,-2.8399,-2.8408,-2.8439,-2.8468,-2.8494,-2.8509,-2.8548,-2.8558,-2.858,-2.8616,-2.8632,-2.8676,-2.8682,-2.873,-2.873,-2.872,-2.8721,-2.8745,-2.8742,-2.8826,-2.8837,-2.8774,-2.8775,-2.8776,0,-2.8329,-2.836,-2.8398,-2.8419,-2.8438,-2.8472,-2.8495,-2.851,-2.8533,-2.8569,-2.8591,-2.8628,-2.8657,-2.8715,-2.8734,-2.8768,-2.8767,-2.8795,-2.8772,-2.8768,-2.8766,-2.8764,-2.8766,-2.8798,-2.8799,-2.8799,-2.8799,0,-2.8388,-2.8396,-2.8429,-2.8465,-2.8492,-2.8521,-2.855,-2.8567,-2.8586,-2.8611,-2.8649,-2.8672,-2.8718,-2.8754,-2.8789,-2.8805,-2.8805,-2.8807,-2.8814,-2.8811,-2.8803,-2.8806,-2.873,-2.8804,-2.8804,-2.8803,-2.8803,-2.8803,-2.8426,-2.8453,-2.8484,-2.8521,-2.8544,-2.8571,-2.8598,-2.8617,-2.8649,-2.8688,-2.8695,-2.8734,-2.8763,-2.881,-2.8828,-2.8859,-2.8852,-2.8863,-2.8865,-2.8868,-2.8868,-2.88,-2.8865,-2.8865,-2.8865,-2.8865,-2.8865,0,-2.8483,-2.8504,-2.8538,-2.8578,-2.8607,-2.8606,-2.8638,-2.8661,-2.8697,-2.8724,-2.8754,-2.8797,-2.8831,-2.8854,-2.8889,-2.8909,-2.891,-2.8918,-2.8915,-2.8919,-2.8873,-2.8863,-2.8916,-2.8916,-2.8916,-2.8916,-2.8916,-2.8916,-2.8516,-2.8562,-2.8574,-2.863,-2.865,-2.869,-2.8708,-2.8732,-2.8754,-2.8802,-2.8832,-2.8847,-2.8872,-2.8909,-2.8941,-2.8947,-2.8958,-2.8966,-2.8971,-2.8928,-2.8922,-2.8917,-2.8907,-2.8969,-2.8969,-2.9014,-2.9015,-2.9015]}]]